Terminal Aerodrome Forecast
Issued by NWS Wichita, KS

Home | Current Version | Previous Version | Graphics & Text | Print | Product List | Glossary On
Versions: 1 2 3 4 5 6 7 8 9 10 11 12 13 14 15 16 17 18 19 20
190
FTUS43 KICT 172320
TAFICT
TAF
KICT 172320Z 1800/1824 35007KT P6SM SKC
     FM180500 14005KT P6SM SKC
     FM181000 17013KT P6SM SKC WS020/19040KT
     FM181400 17016G22KT P6SM SCT250
     FM181700 18025G35KT P6SM SCT250=

USA.gov is the U.S. government's official web portal to all federal, state and local government web resources and services.